PORTS® Data Listing: 8773701 Port OConnor, TX

CO-OPS RAW PORTS DATA

************************      PRELIMINARY DATA      ************************** 

     THIS RAW DATA HAS NOT BEEN SUBJECT TO THE NATIONAL OCEAN SERVICE'S        
     QUALITY CONTROL OR QUALITY ASSURANCE PROCEDURES AND DOES NOT MEET         
     THE CRITERIA AND STANDARDS OF OFFICIAL NATIONAL OCEAN SERVICE             
     DATA.  IT IS RELEASED FOR LIMITED PUBLIC USE AS PRELIMINARY DATA TO       
     BE USED ONLY WITH APPROPRIATE CAUTION.                                    

************************      PRELIMINARY DATA      ************************** 


       CD   -   Calendar date
       T    -   Time
       TZ   -   Timezone
       PW   -   Predicted water level (feet above MLLW)
       OW   -   Observed water level (feet above MLLW)
       WS   -   Wind speed (knots)
       WD   -   Wind direction (degrees true)
       WG   -   Wind gust (knots)
       AT   -   Air temperature (degrees farenheit)
       WT   -   Water temperature (degrees farenheit)
       AP   -   Air pressure (millibars)
       SA   -   Salinty (PSU - Practical Salinity Units)
       SG   -   Specific gravity
       RH   -   Relative humidity
       AG   -   Air gap (feet)
       VI   -   Visibility (nautical miles)

       ** NOTE **
       A variable that has its data fields filled with "9"s, indicates that
       data was not collected for that sample period.
       **********


STATION NAME: Port O'Connor (8773701)
****************************************************************************************************
    CD       T    TZ    PW     OW    WS   WD   WG    AT    WT    AP    SA    SG     RH    AG   VI
****************************************************************************************************
2019/11/13 21:30 CST    0.76   1.79   13   36   15  48.2  61.5 1020.6 -9.9 -9.999 -99.9 -99.99 -9.99
2019/11/13 21:36 CST    0.76   1.78   13   44   15  48.4  61.5 1020.4 -9.9 -9.999 -99.9 -99.99 -9.99
2019/11/13 21:42 CST    0.76   1.78   13   35   15  48.2  61.3 1020.3 -9.9 -9.999 -99.9 -99.99 -9.99
2019/11/13 21:48 CST    0.76   1.77   14   43   16  48.2  61.3 1020.2 -9.9 -9.999 -99.9 -99.99 -9.99
2019/11/13 21:54 CST    0.77   1.81   13   44   16  48.4  61.2 1020.1 -9.9 -9.999 -99.9 -99.99 -9.99
2019/11/13 22:00 CST    0.77   1.81   14   46   17  48.2  61.0 1020.0 -9.9 -9.999 -99.9 -99.99 -9.99
2019/11/13 22:06 CST    0.77   1.80   13   39   16  48.6  61.0 1020.2 -9.9 -9.999 -99.9 -99.99 -9.99
2019/11/13 22:12 CST    0.77   1.80   13   43   16  48.7  60.6 1020.1 -9.9 -9.999 -99.9 -99.99 -9.99
2019/11/13 22:18 CST    0.77   1.81   13   43   15  48.9  60.1 1020.2 -9.9 -9.999 -99.9 -99.99 -9.99
2019/11/13 22:24 CST    0.77   1.80   13   42   16  48.6  58.8 1020.1 -9.9 -9.999 -99.9 -99.99 -9.99
2019/11/13 22:30 CST    0.77   1.79   12   41   15  48.6  56.8 1020.2 -9.9 -9.999 -99.9 -99.99 -9.99
2019/11/13 22:36 CST    0.77   1.78   13   37   15  48.2  55.2 1020.1 -9.9 -9.999 -99.9 -99.99 -9.99
2019/11/13 22:42 CST    0.77   1.80   14   35   16  48.2  54.9 1020.0 -9.9 -9.999 -99.9 -99.99 -9.99
2019/11/13 22:48 CST    0.78   1.80   13   41   15  48.4  55.0 1019.9 -9.9 -9.999 -99.9 -99.99 -9.99
2019/11/13 22:54 CST    0.78   1.82   14   41   16  48.6  54.9 1019.9 -9.9 -9.999 -99.9 -99.99 -9.99
2019/11/13 23:00 CST    0.78   1.83   14   43   17  48.7  55.4 1019.7 -9.9 -9.999 -99.9 -99.99 -9.99
2019/11/13 23:06 CST    0.78   1.85   13   41   16  49.1  55.6 1019.7 -9.9 -9.999 -99.9 -99.99 -9.99
2019/11/13 23:12 CST    0.78   1.86   13   43   16  49.3  56.1 1019.7 -9.9 -9.999 -99.9 -99.99 -9.99
2019/11/13 23:18 CST    0.78   1.88   12   39   15  49.5  56.5 1019.6 -9.9 -9.999 -99.9 -99.99 -9.99
2019/11/13 23:24 CST    0.78   1.89   12   40   15  49.1  56.1 1019.5 -9.9 -9.999 -99.9 -99.99 -9.99
2019/11/13 23:30 CST    0.78   1.89   12   38   15  49.6  56.1 1019.6 -9.9 -9.999 -99.9 -99.99 -9.99
2019/11/13 23:36 CST    0.78   1.88   11   40   14  49.6  56.7 1019.7 -9.9 -9.999 -99.9 -99.99 -9.99
2019/11/13 23:42 CST    0.78   1.88   11   39   13  49.8  56.7 1019.6 -9.9 -9.999 -99.9 -99.99 -9.99
2019/11/13 23:48 CST    0.78   1.88   12   35   14  49.5  57.0 1019.5 -9.9 -9.999 -99.9 -99.99 -9.99
2019/11/13 23:54 CST    0.78   1.87   12   37   14  49.6  57.4 1019.4 -9.9 -9.999 -99.9 -99.99 -9.99
2019/11/14 00:00 CST    0.78   1.87   12   37   14  49.8  58.1 1019.3 -9.9 -9.999 -99.9 -99.99 -9.99
2019/11/14 00:06 CST    0.78   1.88   12   35   14  49.6  58.5 1019.3 -9.9 -9.999 -99.9 -99.99 -9.99
2019/11/14 00:12 CST    0.78   1.88   12   33   14  49.6  58.5 1019.5 -9.9 -9.999 -99.9 -99.99 -9.99
2019/11/14 00:18 CST    0.78   1.88   12   21   14  50.0  58.6 1019.5 -9.9 -9.999 -99.9 -99.99 -9.99
2019/11/14 00:24 CST    0.78   1.87   12   27   14  49.8  58.8 1019.5 -9.9 -9.999 -99.9 -99.99 -9.99
2019/11/14 00:30 CST    0.78   1.88   13   25   15  49.6  59.0 1019.4 -9.9 -9.999 -99.9 -99.99 -9.99
2019/11/14 00:36 CST    0.78   1.90   13   25   15  49.6  58.8 1019.3 -9.9 -9.999 -99.9 -99.99 -9.99
2019/11/14 00:42 CST    0.78   1.93   12   26   15  49.8  59.2 1019.3 -9.9 -9.999 -99.9 -99.99 -9.99
2019/11/14 00:48 CST    0.78   1.94   13   19   15  49.8  59.4 1019.5 -9.9 -9.999 -99.9 -99.99 -9.99
2019/11/14 00:54 CST    0.78   1.93   13   21   15  49.6  59.4 1019.6 -9.9 -9.999 -99.9 -99.99 -9.99
2019/11/14 01:00 CST    0.78   1.91   13   23   15  50.0  59.2 1019.5 -9.9 -9.999 -99.9 -99.99 -9.99
2019/11/14 01:06 CST    0.78   1.87   14   29   16  49.8  59.0 1019.3 -9.9 -9.999 -99.9 -99.99 -9.99
2019/11/14 01:12 CST    0.78   1.91   14   28   16  49.8  58.8 1019.4 -9.9 -9.999 -99.9 -99.99 -9.99
2019/11/14 01:18 CST    0.78   1.92   15   26   17  50.2  58.5 1019.3 -9.9 -9.999 -99.9 -99.99 -9.99
2019/11/14 01:24 CST    0.78   1.90   14   28   17  49.8  57.9 1019.2 -9.9 -9.999 -99.9 -99.99 -9.99
2019/11/14 01:30 CST    0.78   1.88   16   33   18  50.0  57.4 1018.9 -9.9 -9.999 -99.9 -99.99 -9.99
2019/11/14 01:36 CST    0.77   1.87   14   29   17  50.0  56.3 1018.9 -9.9 -9.999 -99.9 -99.99 -9.99
2019/11/14 01:42 CST    0.77   1.89   13   34   15  50.5  55.4 1018.9 -9.9 -9.999 -99.9 -99.99 -9.99
2019/11/14 01:48 CST    0.77   1.82   14   35   16  50.4  55.0 1018.8 -9.9 -9.999 -99.9 -99.99 -9.99
2019/11/14 01:54 CST    0.77   1.91   14   38   17  50.7  54.5 1018.7 -9.9 -9.999 -99.9 -99.99 -9.99
2019/11/14 02:00 CST    0.77   1.89   15   35   16  50.5  54.5 1018.8 -9.9 -9.999 -99.9 -99.99 -9.99
2019/11/14 02:06 CST    0.77   1.89   13   35   16  50.7  54.0 1019.0 -9.9 -9.999 -99.9 -99.99 -9.99
2019/11/14 02:12 CST    0.76   1.90   12   35   15  51.1  55.0 1019.0 -9.9 -9.999 -99.9 -99.99 -9.99
2019/11/14 02:18 CST    0.76   1.89   13   29   15  51.3  55.6 1018.9 -9.9 -9.999 -99.9 -99.99 -9.99
2019/11/14 02:24 CST    0.76   1.91   13   34   15  51.3  55.4 1018.9 -9.9 -9.999 -99.9 -99.99 -9.99
2019/11/14 02:30 CST    0.76   1.91   14   34   15  51.4  56.5 1018.9 -9.9 -9.999 -99.9 -99.99 -9.99
2019/11/14 02:36 CST    0.75   1.91   14   31   16  51.8  56.5 1018.9 -9.9 -9.999 -99.9 -99.99 -9.99
2019/11/14 02:42 CST    0.75   1.90   13   29   15  51.8  56.3 1018.9 -9.9 -9.999 -99.9 -99.99 -9.99
2019/11/14 02:48 CST    0.74   1.87   13   22   16  51.4  57.6 1018.8 -9.9 -9.999 -99.9 -99.99 -9.99
2019/11/14 02:54 CST    0.74   1.88   13   16   15  51.4  57.7 1018.7 -9.9 -9.999 -99.9 -99.99 -9.99
2019/11/14 03:00 CST    0.73   1.86   14   17   16  51.1  58.1 1018.7 -9.9 -9.999 -99.9 -99.99 -9.99
2019/11/14 03:06 CST    0.73   1.86   14   17   16  51.4  57.9 1018.6 -9.9 -9.999 -99.9 -99.99 -9.99
2019/11/14 03:12 CST    0.72   1.86   13   22   17  51.1  57.7 1018.8 -9.9 -9.999 -99.9 -99.99 -9.99
2019/11/14 03:18 CST    0.72   1.85   12   10   15  50.9  57.9 1019.1 -9.9 -9.999 -99.9 -99.99 -9.99
2019/11/14 03:24 CST    0.71   1.85   13    8   15  51.1  57.6 1019.1 -9.9 -9.999 -99.9 -99.99 -9.99
2019/11/14 03:30 CST    0.71   1.85   13    3   16  51.1  57.4 1019.3 -9.9 -9.999 -99.9 -99.99 -9.99
2019/11/14 03:36 CST    0.70   1.86   15    3   16  51.1  58.1 1019.3 -9.9 -9.999 -99.9 -99.99 -9.99
2019/11/14 03:42 CST    0.69   1.88   15    6   18  50.7  58.3 1019.3 -9.9 -9.999 -99.9 -99.99 -9.99
2019/11/14 03:48 CST    0.68   1.87   13    1   17  50.4  57.7 1019.2 -9.9 -9.999 -99.9 -99.99 -9.99
2019/11/14 03:54 CST    0.67   1.84   14    1   18  49.8  57.6 1019.4 -9.9 -9.999 -99.9 -99.99 -9.99
2019/11/14 04:00 CST    0.67   1.83   15  356   17  49.1  57.7 1019.6 -9.9 -9.999 -99.9 -99.99 -9.99
2019/11/14 04:06 CST    0.66   1.81   15  356   17  49.1  57.6 1019.6 -9.9 -9.999 -99.9 -99.99 -9.99
2019/11/14 04:12 CST    0.65   1.80   15    2   17  49.3  57.4 1019.6 -9.9 -9.999 -99.9 -99.99 -9.99
2019/11/14 04:18 CST    0.64   1.79   15    2   17  49.1  57.0 1019.6 -9.9 -9.999 -99.9 -99.99 -9.99
2019/11/14 04:24 CST    0.63   1.77   15    4   17  48.9  56.8 1019.7 -9.9 -9.999 -99.9 -99.99 -9.99
2019/11/14 04:30 CST    0.62   1.74   15    6   17  48.7  56.7 1019.7 -9.9 -9.999 -99.9 -99.99 -9.99
2019/11/14 04:36 CST    0.61   1.73   13   14   16  48.9  56.5 1019.7 -9.9 -9.999 -99.9 -99.99 -9.99
2019/11/14 04:42 CST    0.60   1.72   13   16   15  49.1  55.9 1019.7 -9.9 -9.999 -99.9 -99.99 -9.99
2019/11/14 04:48 CST    0.59   1.72   14   22   16  48.9  55.6 1019.7 -9.9 -9.999 -99.9 -99.99 -9.99
2019/11/14 04:54 CST    0.58   1.71   14   23   16  49.3  55.0 1019.5 -9.9 -9.999 -99.9 -99.99 -9.99
2019/11/14 05:00 CST    0.56   1.69   14   22   17  49.6  54.9 1019.5 -9.9 -9.999 -99.9 -99.99 -9.99
2019/11/14 05:06 CST    0.55   1.67   15   15   17  49.6  54.9 1019.6 -9.9 -9.999 -99.9 -99.99 -9.99
2019/11/14 05:12 CST    0.54   1.66   15   17   17  49.5  54.3 1019.8 -9.9 -9.999 -99.9 -99.99 -9.99
2019/11/14 05:18 CST    0.53   1.65   15   23   17  50.0  54.3 1019.6 -9.9 -9.999 -99.9 -99.99 -9.99
2019/11/14 05:24 CST    0.52   1.65   14   22   17  50.0  54.3 1019.8 -9.9 -9.999 -99.9 -99.99 -9.99
2019/11/14 05:30 CST    0.50   1.61   15   27   17  50.4  54.0 1019.6 -9.9 -9.999 -99.9 -99.99 -9.99
2019/11/14 05:36 CST    0.49   1.61   16   30   18  50.7  54.1 1019.4 -9.9 -9.999 -99.9 -99.99 -9.99
2019/11/14 05:42 CST    0.48   1.61   19   46   21  51.1  54.1 1018.7 -9.9 -9.999 -99.9 -99.99 -9.99
2019/11/14 05:48 CST    0.47   1.61   21   46   24  50.4  53.6 1018.3 -9.9 -9.999 -99.9 -99.99 -9.99
2019/11/14 05:54 CST    0.46   1.62   21   46   24  50.7  53.6 1018.4 -9.9 -9.999 -99.9 -99.99 -9.99
2019/11/14 06:00 CST    0.44   1.61   21   48   24  50.9  53.6 1018.5 -9.9 -9.999 -99.9 -99.99 -9.99
2019/11/14 06:06 CST    0.43   1.61   18   49   23  51.3  53.8 1018.8 -9.9 -9.999 -99.9 -99.99 -9.99
2019/11/14 06:12 CST    0.42   1.60   18   51   22  51.8  54.1 1019.0 -9.9 -9.999 -99.9 -99.99 -9.99
2019/11/14 06:18 CST    0.40   1.59   18   49   20  51.8  54.1 1019.0 -9.9 -9.999 -99.9 -99.99 -9.99
2019/11/14 06:24 CST    0.39   1.53   18   44   21  52.0  53.8 1019.1 -9.9 -9.999 -99.9 -99.99 -9.99
2019/11/14 06:30 CST    0.38   1.51   18   41   20  52.0  53.8 1019.1 -9.9 -9.999 -99.9 -99.99 -9.99
2019/11/14 06:36 CST    0.37   1.48   18   43   22  52.3  54.0 1019.2 -9.9 -9.999 -99.9 -99.99 -9.99
2019/11/14 06:42 CST    0.35   1.47   19   43   22  52.2  54.0 1019.0 -9.9 -9.999 -99.9 -99.99 -9.99
2019/11/14 06:48 CST    0.34   1.48   19   44   23  52.3  53.4 1019.0 -9.9 -9.999 -99.9 -99.99 -9.99
2019/11/14 06:54 CST    0.33   1.48   20   51   22  52.3  53.2 1019.2 -9.9 -9.999 -99.9 -99.99 -9.99
2019/11/14 07:00 CST    0.32   1.51   17   49   21  52.5  53.6 1019.5 -9.9 -9.999 -99.9 -99.99 -9.99
2019/11/14 07:06 CST    0.30   1.50   18   43   20  52.5  53.2 1019.7 -9.9 -9.999 -99.9 -99.99 -9.99
2019/11/14 07:12 CST    0.29   1.51   17   37   20  52.7  53.2 1020.0 -9.9 -9.999 -99.9 -99.99 -9.99
2019/11/14 07:18 CST    0.28   1.49   16   21   19  52.2  53.1 1020.3 -9.9 -9.999 -99.9 -99.99 -9.99
2019/11/14 07:24 CST    0.27   1.46   16   24   18  52.0  52.9 1020.3 -9.9 -9.999 -99.9 -99.99 -9.99
2019/11/14 07:30 CST    0.26   1.43   17   28   19  51.6  52.9 1020.2 -9.9 -9.999 -99.9 -99.99 -9.99
2019/11/14 07:36 CST    0.24   1.44   18   29   20  51.4  52.7 1020.1 -9.9 -9.999 -99.9 -99.99 -9.99
2019/11/14 07:42 CST    0.23   1.45   18   30   20  51.4  52.7 1020.1 -9.9 -9.999 -99.9 -99.99 -9.99
2019/11/14 07:48 CST    0.22   1.43   17   27   21  51.3  52.7 1020.3 -9.9 -9.999 -99.9 -99.99 -9.99
2019/11/14 07:54 CST    0.21   1.42   17   29   20  51.1  52.5 1020.3 -9.9 -9.999 -99.9 -99.99 -9.99
2019/11/14 08:00 CST    0.20   1.38   17   26   21  51.3  52.5 1020.5 -9.9 -9.999 -99.9 -99.99 -9.99
2019/11/14 08:06 CST    0.18   1.35   18   23   20  51.1  52.3 1020.6 -9.9 -9.999 -99.9 -99.99 -9.99
2019/11/14 08:12 CST    0.17   1.36   19   26   21  50.5  52.3 1020.5 -9.9 -9.999 -99.9 -99.99 -9.99
2019/11/14 08:18 CST    0.16   1.36   17   28   21  50.4  52.3 1020.7 -9.9 -9.999 -99.9 -99.99 -9.99
2019/11/14 08:24 CST    0.15   1.36   17   24   20  50.2  52.2 1020.8 -9.9 -9.999 -99.9 -99.99 -9.99
2019/11/14 08:30 CST    0.14   1.36   19   29   20  50.4  52.2 1020.7 -9.9 -9.999 -99.9 -99.99 -9.99
2019/11/14 08:36 CST    0.13   1.35   19   27   21  50.0  52.2 1020.9 -9.9 -9.999 -99.9 -99.99 -9.99
2019/11/14 08:42 CST    0.11   1.33   18   22   20  49.8  52.2 1021.1 -9.9 -9.999 -99.9 -99.99 -9.99
2019/11/14 08:48 CST    0.10   1.32   17   17   20  49.8  52.0 1021.2 -9.9 -9.999 -99.9 -99.99 -9.99
2019/11/14 08:54 CST    0.09   1.32   17   19   20  50.0  51.8 1021.2 -9.9 -9.999 -99.9 -99.99 -9.99
2019/11/14 09:00 CST    0.08   1.24   18   18   20  49.5  52.0 1021.5 -9.9 -9.999 -99.9 -99.99 -9.99
2019/11/14 09:06 CST    0.07   1.32   17   17   21  49.8  51.8 1021.5 -9.9 -9.999 -99.9 -99.99 -9.99
2019/11/14 09:12 CST    0.06   1.29   16   15   20  50.0  51.8 1021.5 -9.9 -9.999 -99.9 -99.99 -9.99
2019/11/14 09:18 CST    0.05   1.28   17   20   20  49.8  51.4 1021.7 -9.9 -9.999 -99.9 -99.99 -9.99
2019/11/14 09:24 CST    0.04   1.28   19   15   21  49.3  51.4 1021.7 -9.9 -9.999 -99.9 -99.99 -9.99
2019/11/14 09:30 CST    0.03   1.26   17   14   19  49.5  51.4 1021.8 -9.9 -9.999 -99.9 -99.99 -9.99
2019/11/14 09:36 CST    0.02   1.26   17   14   20  49.5  51.4 1021.9 -9.9 -9.999 -99.9 -99.99 -9.99
2019/11/14 09:42 CST    0.01   1.25   17   16   20  49.6  51.3 1021.9 -9.9 -9.999 -99.9 -99.99 -9.99
2019/11/14 09:48 CST   -0.00   1.24   18   15   20  49.6  51.3 1021.9 -9.9 -9.999 -99.9 -99.99 -9.99
2019/11/14 09:54 CST   -0.01   1.23   18   15   21  49.6  51.6 1022.0 -9.9 -9.999 -99.9 -99.99 -9.99
2019/11/14 10:00 CST   -0.02   1.22   18   13   21  49.5  51.3 1022.1 -9.9 -9.999 -99.9 -99.99 -9.99
2019/11/14 10:06 CST   -0.03   1.21   20   15   22  49.3  51.3 1022.2 -9.9 -9.999 -99.9 -99.99 -9.99
2019/11/14 10:12 CST   -0.04   1.18   19   17   21  49.5  51.3 1022.2 -9.9 -9.999 -99.9 -99.99 -9.99
2019/11/14 10:18 CST   -0.05   1.18   19   16   22  49.3  51.3 1022.3 -9.9 -9.999 -99.9 -99.99 -9.99
2019/11/14 10:24 CST   -0.06   1.18   17   14   23  49.5  51.4 1022.4 -9.9 -9.999 -99.9 -99.99 -9.99
2019/11/14 10:30 CST   -0.07   1.17   18   11   21  49.5  51.1 1022.5 -9.9 -9.999 -99.9 -99.99 -9.99
2019/11/14 10:36 CST   -0.08   1.15   19    7   21  49.3  51.4 1022.6 -9.9 -9.999 -99.9 -99.99 -9.99
2019/11/14 10:42 CST   -0.08   1.15   19    9   21  49.3  51.3 1022.7 -9.9 -9.999 -99.9 -99.99 -9.99
2019/11/14 10:48 CST   -0.09   1.15   18  357   21  49.5  51.1 1022.8 -9.9 -9.999 -99.9 -99.99 -9.99
2019/11/14 10:54 CST   -0.10   1.15   18    5   21  49.6  51.1 1022.7 -9.9 -9.999 -99.9 -99.99 -9.99
2019/11/14 11:00 CST   -0.10   1.15   19   20   23  49.5  51.1 1022.4 -9.9 -9.999 -99.9 -99.99 -9.99
2019/11/14 11:06 CST   -0.11   1.16   20   23   23  49.8  51.1 1022.3 -9.9 -9.999 -99.9 -99.99 -9.99
2019/11/14 11:12 CST   -0.12   1.17   19   21   23  49.8  50.9 1022.4 -9.9 -9.999 -99.9 -99.99 -9.99
2019/11/14 11:18 CST   -0.12   1.16   19   20   23  49.6  51.1 1022.5 -9.9 -9.999 -99.9 -99.99 -9.99
2019/11/14 11:24 CST   -0.13   1.14   19   19   22  49.8  50.9 1022.5 -9.9 -9.999 -99.9 -99.99 -9.99
2019/11/14 11:30 CST   -0.13   1.14   19   21   22  49.3  50.9 1022.6 -9.9 -9.999 -99.9 -99.99 -9.99
2019/11/14 11:36 CST   -0.13   1.13   18   16   22  49.5  51.3 1022.6 -9.9 -9.999 -99.9 -99.99 -9.99
2019/11/14 11:42 CST   -0.14   1.13   19   18   22  49.1  51.1 1022.7 -9.9 -9.999 -99.9 -99.99 -9.99
2019/11/14 11:48 CST   -0.14   1.13   20   22   23  49.3  51.3 1022.5 -9.9 -9.999 -99.9 -99.99 -9.99
2019/11/14 11:54 CST   -0.14   1.14   21   19   24  48.9  51.3 1022.7 -9.9 -9.999 -99.9 -99.99 -9.99
2019/11/14 12:00 CST   -0.14   1.12   20   15   23  48.9  51.3 1022.8 -9.9 -9.999 -99.9 -99.99 -9.99
2019/11/14 12:06 CST   -0.14   1.14   19    8   23  49.3  51.1 1022.6 -9.9 -9.999 -99.9 -99.99 -9.99
2019/11/14 12:12 CST   -0.15   1.17   20   13   22  48.7  51.1 1022.6 -9.9 -9.999 -99.9 -99.99 -9.99
2019/11/14 12:18 CST   -0.14   1.17   19   11   22  48.7  51.3 1022.6 -9.9 -9.999 -99.9 -99.99 -9.99
2019/11/14 12:24 CST   -0.14   1.15   19   11   22  48.9  51.3 1022.6 -9.9 -9.999 -99.9 -99.99 -9.99
2019/11/14 12:30 CST   -0.14   1.16   17   13   21  49.5  51.3 1022.5 -9.9 -9.999 -99.9 -99.99 -9.99
2019/11/14 12:36 CST   -0.14   1.16   18   11   21  48.9  51.3 1022.5 -9.9 -9.999 -99.9 -99.99 -9.99
2019/11/14 12:42 CST   -0.14   1.16   19   14   22  48.4  51.1 1022.4 -9.9 -9.999 -99.9 -99.99 -9.99
2019/11/14 12:48 CST   -0.13   1.17   18   13   21  48.4  51.1 1022.3 -9.9 -9.999 -99.9 -99.99 -9.99
2019/11/14 12:54 CST   -0.13   1.17   17   18   21  48.2  51.4 1022.0 -9.9 -9.999 -99.9 -99.99 -9.99
2019/11/14 13:00 CST   -0.13   1.16   20   27   23  48.0  51.3 1021.9 -9.9 -9.999 -99.9 -99.99 -9.99
2019/11/14 13:06 CST   -0.12   1.13   21   21   24  48.6  51.3 1021.9 -9.9 -9.999 -99.9 -99.99 -9.99
2019/11/14 13:12 CST   -0.12   1.11   21   20   24  48.4  51.4 1021.9 -9.9 -9.999 -99.9 -99.99 -9.99
2019/11/14 13:18 CST   -0.11   1.10   21   18   24  48.4  51.3 1021.9 -9.9 -9.999 -99.9 -99.99 -9.99
2019/11/14 13:24 CST   -0.10   1.08   21   23   24  48.7  51.4 1021.7 -9.9 -9.999 -99.9 -99.99 -9.99
2019/11/14 13:30 CST   -0.10   1.08   22   22   25  48.6  51.6 1021.8 -9.9 -9.999 -99.9 -99.99 -9.99
2019/11/14 13:36 CST   -0.09   1.11   20   14   23  48.7  51.4 1022.0 -9.9 -9.999 -99.9 -99.99 -9.99
2019/11/14 13:42 CST   -0.08   1.13   19   10   23  49.1  51.8 1022.0 -9.9 -9.999 -99.9 -99.99 -9.99
2019/11/14 13:48 CST   -0.07   1.15   19   11   21  48.6  51.4 1022.2 -9.9 -9.999 -99.9 -99.99 -9.99
2019/11/14 13:54 CST   -0.06   1.18   20   10   23  48.7  51.6 1022.3 -9.9 -9.999 -99.9 -99.99 -9.99
2019/11/14 14:00 CST   -0.05   1.19   20    9   24  48.9  51.4 1022.2 -9.9 -9.999 -99.9 -99.99 -9.99
2019/11/14 14:06 CST   -0.04   1.23   20   16   23  48.7  51.4 1022.1 -9.9 -9.999 -99.9 -99.99 -9.99
2019/11/14 14:12 CST   -0.03   1.26   21   22   24  48.7  51.4 1022.0 -9.9 -9.999 -99.9 -99.99 -9.99
2019/11/14 14:18 CST   -0.02   1.27   19   13   23  48.9  51.4 1022.0 -9.9 -9.999 -99.9 -99.99 -9.99
2019/11/14 14:24 CST   -0.01   1.28   21   19   24  48.6  51.4 1021.9 -9.9 -9.999 -99.9 -99.99 -9.99
2019/11/14 14:30 CST    0.00   1.30   20    8   23  48.4  51.6 1022.1 -9.9 -9.999 -99.9 -99.99 -9.99
2019/11/14 14:36 CST    0.01   1.31   21    9   24  48.4  51.6 1022.1 -9.9 -9.999 -99.9 -99.99 -9.99
2019/11/14 14:42 CST    0.03   1.31   20   14   24  48.7  51.6 1022.3 -9.9 -9.999 -99.9 -99.99 -9.99
2019/11/14 14:48 CST    0.04   1.32   19    6   24  48.6  51.4 1022.4 -9.9 -9.999 -99.9 -99.99 -9.99
2019/11/14 14:54 CST    0.05   1.35   21    2   24  47.8  51.4 1022.7 -9.9 -9.999 -99.9 -99.99 -9.99
2019/11/14 15:00 CST    0.06   1.37   21    6   23  48.0  51.4 1022.7 -9.9 -9.999 -99.9 -99.99 -9.99
2019/11/14 15:06 CST    0.07   1.38   20    3   23  47.8  51.4 1022.8 -9.9 -9.999 -99.9 -99.99 -9.99
2019/11/14 15:12 CST    0.09   1.39   21    2   23  47.3  51.6 1023.0 -9.9 -9.999 -99.9 -99.99 -9.99
2019/11/14 15:18 CST    0.10 -99.99 -999 -999 -999 -99.9 -99.9 -999.9 -9.9 -9.999 -99.9 -99.99 -9.99
2019/11/14 15:24 CST    0.11 -99.99 -999 -999 -999 -99.9 -99.9 -999.9 -9.9 -9.999 -99.9 -99.99 -9.99
2019/11/14 15:30 CST    0.13 -99.99 -999 -999 -999 -99.9 -99.9 -999.9 -9.9 -9.999 -99.9 -99.99 -9.99
2019/11/14 15:36 CST    0.14 -99.99 -999 -999 -999 -99.9 -99.9 -999.9 -9.9 -9.999 -99.9 -99.99 -9.99
2019/11/14 15:42 CST    0.15 -99.99 -999 -999 -999 -99.9 -99.9 -999.9 -9.9 -9.999 -99.9 -99.99 -9.99
2019/11/14 15:48 CST    0.17 -99.99 -999 -999 -999 -99.9 -99.9 -999.9 -9.9 -9.999 -99.9 -99.99 -9.99
2019/11/14 15:54 CST    0.18 -99.99 -999 -999 -999 -99.9 -99.9 -999.9 -9.9 -9.999 -99.9 -99.99 -9.99
2019/11/14 16:00 CST    0.19 -99.99 -999 -999 -999 -99.9 -99.9 -999.9 -9.9 -9.999 -99.9 -99.99 -9.99
2019/11/14 16:06 CST    0.21 -99.99 -999 -999 -999 -99.9 -99.9 -999.9 -9.9 -9.999 -99.9 -99.99 -9.99
2019/11/14 16:12 CST    0.22 -99.99 -999 -999 -999 -99.9 -99.9 -999.9 -9.9 -9.999 -99.9 -99.99 -9.99
2019/11/14 16:18 CST    0.23 -99.99 -999 -999 -999 -99.9 -99.9 -999.9 -9.9 -9.999 -99.9 -99.99 -9.99
2019/11/14 16:24 CST    0.24 -99.99 -999 -999 -999 -99.9 -99.9 -999.9 -9.9 -9.999 -99.9 -99.99 -9.99
2019/11/14 16:30 CST    0.26 -99.99 -999 -999 -999 -99.9 -99.9 -999.9 -9.9 -9.999 -99.9 -99.99 -9.99
2019/11/14 16:36 CST    0.27 -99.99 -999 -999 -999 -99.9 -99.9 -999.9 -9.9 -9.999 -99.9 -99.99 -9.99
2019/11/14 16:42 CST    0.28 -99.99 -999 -999 -999 -99.9 -99.9 -999.9 -9.9 -9.999 -99.9 -99.99 -9.99
2019/11/14 16:48 CST    0.30 -99.99 -999 -999 -999 -99.9 -99.9 -999.9 -9.9 -9.999 -99.9 -99.99 -9.99
2019/11/14 16:54 CST    0.31 -99.99 -999 -999 -999 -99.9 -99.9 -999.9 -9.9 -9.999 -99.9 -99.99 -9.99
2019/11/14 17:00 CST    0.32 -99.99 -999 -999 -999 -99.9 -99.9 -999.9 -9.9 -9.999 -99.9 -99.99 -9.99
2019/11/14 17:06 CST    0.33 -99.99 -999 -999 -999 -99.9 -99.9 -999.9 -9.9 -9.999 -99.9 -99.99 -9.99
2019/11/14 17:12 CST    0.35 -99.99 -999 -999 -999 -99.9 -99.9 -999.9 -9.9 -9.999 -99.9 -99.99 -9.99
2019/11/14 17:18 CST    0.36 -99.99 -999 -999 -999 -99.9 -99.9 -999.9 -9.9 -9.999 -99.9 -99.99 -9.99
2019/11/14 17:24 CST    0.37 -99.99 -999 -999 -999 -99.9 -99.9 -999.9 -9.9 -9.999 -99.9 -99.99 -9.99
2019/11/14 17:30 CST    0.38 -99.99 -999 -999 -999 -99.9 -99.9 -999.9 -9.9 -9.999 -99.9 -99.99 -9.99
2019/11/14 17:36 CST    0.40 -99.99 -999 -999 -999 -99.9 -99.9 -999.9 -9.9 -9.999 -99.9 -99.99 -9.99
2019/11/14 17:42 CST    0.41 -99.99 -999 -999 -999 -99.9 -99.9 -999.9 -9.9 -9.999 -99.9 -99.99 -9.99
2019/11/14 17:48 CST    0.42 -99.99 -999 -999 -999 -99.9 -99.9 -999.9 -9.9 -9.999 -99.9 -99.99 -9.99
2019/11/14 17:54 CST    0.43 -99.99 -999 -999 -999 -99.9 -99.9 -999.9 -9.9 -9.999 -99.9 -99.99 -9.99
2019/11/14 18:00 CST    0.44 -99.99 -999 -999 -999 -99.9 -99.9 -999.9 -9.9 -9.999 -99.9 -99.99 -9.99
2019/11/14 18:06 CST    0.46 -99.99 -999 -999 -999 -99.9 -99.9 -999.9 -9.9 -9.999 -99.9 -99.99 -9.99
2019/11/14 18:12 CST    0.47 -99.99 -999 -999 -999 -99.9 -99.9 -999.9 -9.9 -9.999 -99.9 -99.99 -9.99
2019/11/14 18:18 CST    0.48 -99.99 -999 -999 -999 -99.9 -99.9 -999.9 -9.9 -9.999 -99.9 -99.99 -9.99
2019/11/14 18:24 CST    0.49 -99.99 -999 -999 -999 -99.9 -99.9 -999.9 -9.9 -9.999 -99.9 -99.99 -9.99
2019/11/14 18:30 CST    0.50 -99.99 -999 -999 -999 -99.9 -99.9 -999.9 -9.9 -9.999 -99.9 -99.99 -9.99
2019/11/14 18:36 CST    0.51 -99.99 -999 -999 -999 -99.9 -99.9 -999.9 -9.9 -9.999 -99.9 -99.99 -9.99
2019/11/14 18:42 CST    0.52 -99.99 -999 -999 -999 -99.9 -99.9 -999.9 -9.9 -9.999 -99.9 -99.99 -9.99
2019/11/14 18:48 CST    0.54 -99.99 -999 -999 -999 -99.9 -99.9 -999.9 -9.9 -9.999 -99.9 -99.99 -9.99
2019/11/14 18:54 CST    0.55 -99.99 -999 -999 -999 -99.9 -99.9 -999.9 -9.9 -9.999 -99.9 -99.99 -9.99
2019/11/14 19:00 CST    0.56 -99.99 -999 -999 -999 -99.9 -99.9 -999.9 -9.9 -9.999 -99.9 -99.99 -9.99
2019/11/14 19:06 CST    0.57 -99.99 -999 -999 -999 -99.9 -99.9 -999.9 -9.9 -9.999 -99.9 -99.99 -9.99
2019/11/14 19:12 CST    0.58 -99.99 -999 -999 -999 -99.9 -99.9 -999.9 -9.9 -9.999 -99.9 -99.99 -9.99
2019/11/14 19:18 CST    0.59 -99.99 -999 -999 -999 -99.9 -99.9 -999.9 -9.9 -9.999 -99.9 -99.99 -9.99
2019/11/14 19:24 CST    0.60 -99.99 -999 -999 -999 -99.9 -99.9 -999.9 -9.9 -9.999 -99.9 -99.99 -9.99
2019/11/14 19:30 CST    0.61 -99.99 -999 -999 -999 -99.9 -99.9 -999.9 -9.9 -9.999 -99.9 -99.99 -9.99
2019/11/14 19:36 CST    0.62 -99.99 -999 -999 -999 -99.9 -99.9 -999.9 -9.9 -9.999 -99.9 -99.99 -9.99
2019/11/14 19:42 CST    0.63 -99.99 -999 -999 -999 -99.9 -99.9 -999.9 -9.9 -9.999 -99.9 -99.99 -9.99
2019/11/14 19:48 CST    0.64 -99.99 -999 -999 -999 -99.9 -99.9 -999.9 -9.9 -9.999 -99.9 -99.99 -9.99
2019/11/14 19:54 CST    0.65 -99.99 -999 -999 -999 -99.9 -99.9 -999.9 -9.9 -9.999 -99.9 -99.99 -9.99
2019/11/14 20:00 CST    0.66 -99.99 -999 -999 -999 -99.9 -99.9 -999.9 -9.9 -9.999 -99.9 -99.99 -9.99
2019/11/14 20:06 CST    0.67 -99.99 -999 -999 -999 -99.9 -99.9 -999.9 -9.9 -9.999 -99.9 -99.99 -9.99
2019/11/14 20:12 CST    0.67 -99.99 -999 -999 -999 -99.9 -99.9 -999.9 -9.9 -9.999 -99.9 -99.99 -9.99
2019/11/14 20:18 CST    0.68 -99.99 -999 -999 -999 -99.9 -99.9 -999.9 -9.9 -9.999 -99.9 -99.99 -9.99
2019/11/14 20:24 CST    0.69 -99.99 -999 -999 -999 -99.9 -99.9 -999.9 -9.9 -9.999 -99.9 -99.99 -9.99
2019/11/14 20:30 CST    0.70 -99.99 -999 -999 -999 -99.9 -99.9 -999.9 -9.9 -9.999 -99.9 -99.99 -9.99
2019/11/14 20:36 CST    0.71 -99.99 -999 -999 -999 -99.9 -99.9 -999.9 -9.9 -9.999 -99.9 -99.99 -9.99
2019/11/14 20:42 CST    0.72 -99.99 -999 -999 -999 -99.9 -99.9 -999.9 -9.9 -9.999 -99.9 -99.99 -9.99
2019/11/14 20:48 CST    0.72 -99.99 -999 -999 -999 -99.9 -99.9 -999.9 -9.9 -9.999 -99.9 -99.99 -9.99
2019/11/14 20:54 CST    0.73 -99.99 -999 -999 -999 -99.9 -99.9 -999.9 -9.9 -9.999 -99.9 -99.99 -9.99
2019/11/14 21:00 CST    0.74 -99.99 -999 -999 -999 -99.9 -99.9 -999.9 -9.9 -9.999 -99.9 -99.99 -9.99
2019/11/14 21:06 CST    0.74 -99.99 -999 -999 -999 -99.9 -99.9 -999.9 -9.9 -9.999 -99.9 -99.99 -9.99
2019/11/14 21:12 CST    0.75 -99.99 -999 -999 -999 -99.9 -99.9 -999.9 -9.9 -9.999 -99.9 -99.99 -9.99
2019/11/14 21:18 CST    0.75 -99.99 -999 -999 -999 -99.9 -99.9 -999.9 -9.9 -9.999 -99.9 -99.99 -9.99
2019/11/14 21:24 CST    0.76 -99.99 -999 -999 -999 -99.9 -99.9 -999.9 -9.9 -9.999 -99.9 -99.99 -9.99
2019/11/14 21:30 CST    0.77 -99.99 -999 -999 -999 -99.9 -99.9 -999.9 -9.9 -9.999 -99.9 -99.99 -9.99